When you browse on this site, cookies collect data to enhance your experience and personalize the content and advertising you see.
Visit our Privacy Policy to learn more. By continuing to use the site, you agree to this use of cookies and data.
  • în România
  • Lista ţărilor
  • Pe 7 zile
  • Temperatura apei
  • Meteo pe hartă
  • Widget-uri
  • user-avatar
    Intrare

    Meteo pe oră la Solden

    Astăzi, 19 Septembrie, Joi

    Timp Temperatura Precipitaţii Vânt Presiune Umiditate
    00:00 +5°C° 0 mm 1 m/s 585 mmHg 90%
    01:00 +5°C° 0 mm 1 m/s 585 mmHg 89%
    02:00 +4°C° 0 mm 1 m/s 585 mmHg 89%
    03:00 +4°C° 0 mm 1 m/s 585 mmHg 88%
    04:00 +3°C° 0 mm 1 m/s 585 mmHg 87%
    05:00 +4°C° 0 mm 1 m/s 585 mmHg 85%
    06:00 +4°C° 0 mm 1 m/s 585 mmHg 83%
    07:00 +4°C° 0 mm 1 m/s 585 mmHg 80%
    08:00 +6°C° 0 mm 1 m/s 586 mmHg 71%
    09:00 +8°C° 0 mm 1 m/s 588 mmHg 61%
    10:00 +10°C° 0 mm 1 m/s 589 mmHg 51%
    11:00 +11°C° 0 mm 1 m/s 589 mmHg 50%
    12:00 +12°C° 0 mm 1 m/s 589 mmHg 48%
    13:00 +12°C° 0 mm 2 m/s 590 mmHg 47%
    14:00 +12°C° 0 mm 2 m/s 590 mmHg 50%
    15:00 +12°C° 0 mm 2 m/s 589 mmHg 53%
    16:00 +10°C° 0 mm 2 m/s 589 mmHg 56%
    17:00 +9°C° 0 mm 1 m/s 588 mmHg 66%
    18:00 +7°C° 0 mm 1 m/s 587 mmHg 76%
    19:00 +5°C° 0 mm 1 m/s 587 mmHg 86%
    20:00 +4°C° 0 mm 1 m/s 587 mmHg 86%
    21:00 +4°C° 0 mm 1 m/s 587 mmHg 86%
    22:00 +2°C° 0 mm 0 m/s 587 mmHg 86%
    23:00 +2°C° 0 mm 0 m/s 587 mmHg 85%

    Mâine, 20 Septembrie, Vineri

    Timp Temperatura Precipitaţii Vânt Presiune Umiditate
    00:00 +2°C° 0 mm 0 m/s 587 mmHg 84%
    01:00 +2°C° 0 mm 0 m/s 587 mmHg 84%
    02:00 +2°C° 0 mm 0 m/s 587 mmHg 83%
    03:00 +1°C° 0 mm 0 m/s 586 mmHg 82%
    04:00 +1°C° 0 mm 0 m/s 586 mmHg 81%
    05:00 +2°C° 0 mm 0 m/s 586 mmHg 80%
    06:00 +2°C° 0 mm 0 m/s 587 mmHg 79%
    07:00 +3°C° 0 mm 0 m/s 587 mmHg 78%
    08:00 +5°C° 0 mm 0 m/s 588 mmHg 70%
    09:00 +8°C° 0 mm 1 m/s 589 mmHg 62%
    10:00 +10°C° 0 mm 1 m/s 590 mmHg 55%
    11:00 +11°C° 0 mm 1 m/s 590 mmHg 53%
    12:00 +12°C° 0 mm 1 m/s 590 mmHg 52%
    13:00 +12°C° 0 mm 2 m/s 590 mmHg 51%
    14:00 +12°C° 0 mm 2 m/s 590 mmHg 54%
    15:00 +12°C° 0 mm 2 m/s 590 mmHg 58%
    16:00 +10°C° 0 mm 2 m/s 589 mmHg 62%
    17:00 +9°C° 0 mm 1 m/s 588 mmHg 72%
    18:00 +7°C° 0 mm 1 m/s 587 mmHg 83%
    19:00 +3°C° 0 mm 0 m/s 586 mmHg 94%
    20:00 +3°C° 0 mm 0 m/s 586 mmHg 94%
    21:00 +3°C° 0 mm 0 m/s 586 mmHg 95%
    22:00 +3°C° 0 mm 0 m/s 587 mmHg 95%
    23:00 +3°C° 0 mm 0 m/s 586 mmHg 95%

    Poimâine, 21 Septembrie, Sâmbătă

    Timp Temperatura Precipitaţii Vânt Presiune Umiditate
    00:00 +3°C° 0 mm 0 m/s 586 mmHg 95%
    01:00 +2°C° 0 mm 0 m/s 586 mmHg 95%
    02:00 +2°C° 0 mm 0 m/s 586 mmHg 95%
    03:00 +2°C° 0 mm 0 m/s 586 mmHg 95%
    04:00 +2°C° 0 mm 0 m/s 586 mmHg 94%
    05:00 +2°C° 0 mm 0 m/s 586 mmHg 93%
    06:00 +3°C° 0 mm 0 m/s 586 mmHg 91%
    07:00 +3°C° 0 mm 0 m/s 586 mmHg 89%
    08:00 +5°C° 0 mm 0 m/s 587 mmHg 82%
    09:00 +8°C° 0 mm 1 m/s 587 mmHg 74%
    10:00 +10°C° 0 mm 1 m/s 588 mmHg 66%
    11:00 +11°C° 0 mm 1 m/s 589 mmHg 63%
    12:00 +12°C° 0 mm 2 m/s 589 mmHg 60%
    13:00 +12°C° 0 mm 2 m/s 589 mmHg 57%
    14:00 +12°C° 0 mm 2 m/s 588 mmHg 59%
    15:00 +12°C° 0 mm 2 m/s 588 mmHg 61%
    16:00 +10°C° 0 mm 2 m/s 587 mmHg 63%
    17:00 +8°C° 0 mm 2 m/s 587 mmHg 74%
    18:00 +7°C° 0 mm 1 m/s 586 mmHg 84%
    19:00 +5°C° 0 mm 1 m/s 585 mmHg 94%
    20:00 +5°C° 0 mm 1 m/s 585 mmHg 95%
    21:00 +5°C° 0 mm 1 m/s 585 mmHg 95%
    22:00 +5°C° 0 mm 1 m/s 585 mmHg 96%
    23:00 +5°C° 0 mm 1 m/s 585 mmHg 94%

    22 Septembrie, Duminică

    Timp Temperatura Precipitaţii Vânt Presiune Umiditate
    00:00 +5°C° 0 mm 1 m/s 584 mmHg 93%
    01:00 +5°C° 0 mm 1 m/s 584 mmHg 92%
    02:00 +4°C° 0 mm 1 m/s 584 mmHg 92%
    03:00 +4°C° 0 mm 1 m/s 584 mmHg 93%
    04:00 +4°C° 0 mm 1 m/s 583 mmHg 93%
    05:00 +5°C° 0 mm 1 m/s 583 mmHg 93%
    06:00 +5°C° 0 mm 1 m/s 583 mmHg 93%
    07:00 +5°C° 0 mm 1 m/s 583 mmHg 93%
    08:00 +7°C° 0 mm 1 m/s 584 mmHg 87%
    09:00 +8°C° 0 mm 1 m/s 585 mmHg 82%
    10:00 +9°C° 0 mm 2 m/s 586 mmHg 76%
    11:00 +10°C° 0 mm 1 m/s 586 mmHg 74%
    12:00 +11°C° 0 mm 1 m/s 586 mmHg 73%
    13:00 +11°C° 0 mm 1 m/s 586 mmHg 71%
    14:00 +11°C° 0.1 mm 1 m/s 585 mmHg 75%
    15:00 +10°C° 0.1 mm 2 m/s 585 mmHg 78%
    16:00 +9°C° 0.1 mm 2 m/s 585 mmHg 81%
    17:00 +9°C° 0.1 mm 1 m/s 584 mmHg 86%
    18:00 +8°C° 0.1 mm 1 m/s 583 mmHg 92%
    19:00 +7°C° 0.1 mm 1 m/s 583 mmHg 97%
    20:00 +7°C° 0.1 mm 1 m/s 583 mmHg 97%
    21:00 +7°C° 0.1 mm 1 m/s 583 mmHg 97%
    22:00 +7°C° 0.1 mm 1 m/s 583 mmHg 97%
    23:00 +7°C° 0.3 mm 1 m/s 583 mmHg 97%

    23 Septembrie, Luni

    Timp Temperatura Precipitaţii Vânt Presiune Umiditate
    00:00 +6°C° 0.3 mm 0 m/s 583 mmHg 97%
    01:00 +6°C° 0.3 mm 0 m/s 583 mmHg 97%
    02:00 +6°C° 0.1 mm 0 m/s 583 mmHg 97%
    03:00 +6°C° 0.1 mm 0 m/s 583 mmHg 97%
    04:00 +6°C° 0.1 mm 0 m/s 583 mmHg 97%
    05:00 +6°C° 0.5 mm 0 m/s 583 mmHg 96%
    06:00 +7°C° 0.5 mm 1 m/s 583 mmHg 96%
    07:00 +7°C° 0.5 mm 1 m/s 583 mmHg 96%
    08:00 +7°C° 0.5 mm 1 m/s 584 mmHg 95%
    09:00 +7°C° 0.5 mm 1 m/s 584 mmHg 94%
    10:00 +7°C° 0.5 mm 1 m/s 584 mmHg 93%
    11:00 +8°C° 0.1 mm 1 m/s 584 mmHg 90%
    12:00 +8°C° 0.1 mm 1 m/s 585 mmHg 86%
    13:00 +9°C° 0.1 mm 1 m/s 585 mmHg 83%
    14:00 +9°C° 0 mm 1 m/s 585 mmHg 79%
    15:00 +9°C° 0 mm 1 m/s 585 mmHg 76%
    16:00 +10°C° 0 mm 1 m/s 585 mmHg 72%
    17:00 +8°C° 0 mm 1 m/s 585 mmHg 76%
    18:00 +7°C° 0 mm 1 m/s 584 mmHg 81%
    19:00 +5°C° 0 mm 2 m/s 584 mmHg 85%
    20:00 +5°C° 0 mm 1 m/s 584 mmHg 85%
    21:00 +4°C° 0 mm 1 m/s 584 mmHg 85%
    22:00 +3°C° 0 mm 1 m/s 584 mmHg 84%
    23:00 +3°C° 0 mm 1 m/s 584 mmHg 83%

    24 Septembrie, Marţi

    Timp Temperatura Precipitaţii Vânt Presiune Umiditate
    00:00 +3°C° 0 mm 1 m/s 584 mmHg 81%
    01:00 +3°C° 0 mm 1 m/s 584 mmHg 80%
    02:00 +3°C° 0 mm 1 m/s 583 mmHg 78%
    03:00 +2°C° 0 mm 1 m/s 583 mmHg 76%
    04:00 +2°C° 0 mm 1 m/s 583 mmHg 74%
    05:00 +3°C° 0 mm 1 m/s 583 mmHg 71%
    06:00 +3°C° 0 mm 1 m/s 583 mmHg 68%
    07:00 +4°C° 0 mm 1 m/s 584 mmHg 65%
    08:00 +6°C° 0 mm 1 m/s 585 mmHg 58%
    09:00 +9°C° 0 mm 1 m/s 586 mmHg 51%
    10:00 +11°C° 0 mm 1 m/s 587 mmHg 44%
    11:00 +12°C° 0 mm 1 m/s 587 mmHg 43%
    12:00 +13°C° 0 mm 1 m/s 588 mmHg 43%
    13:00 +13°C° 0 mm 1 m/s 588 mmHg 43%
    14:00 +13°C° 0 mm 1 m/s 587 mmHg 47%
    15:00 +13°C° 0 mm 1 m/s 587 mmHg 51%
    16:00 +12°C° 0 mm 1 m/s 587 mmHg 55%
    17:00 +10°C° 0 mm 1 m/s 586 mmHg 63%
    18:00 +8°C° 0 mm 0 m/s 585 mmHg 71%
    19:00 +6°C° 0 mm 0 m/s 584 mmHg 79%
    20:00 +6°C° 0 mm 0 m/s 584 mmHg 78%
    21:00 +6°C° 0 mm 0 m/s 584 mmHg 78%
    22:00 +5°C° 0 mm 0 m/s 584 mmHg 78%
    23:00 +5°C° 0 mm 0 m/s 584 mmHg 78%
    Arată mai mult